Weather in Solovki

Russia / Arkhangel'skaya Oblast'     65°01′47″N   35°43′23″E
temp.,
°C
wind,
m/s
gust,
m/s
humid.,
%
clouds,
%
prec.,
mm/h
press.,
hPa
HPBL,
m
8 march, mon
mon800:00−20ne811964 0.0 1009250
03:00−21ne7119713 0.0 1011271
06:00−21ne6109979 0.0 1013257
09:00−22nne699989 0.0 1014277
12:00−23ne689796 0.0 1016320
15:00−23nne689689 0.0 1017315
18:00−24nne469843 0.0 1018118
21:00−24ne349823 0.0 102045
9 march, tue
tue900:00−25nne12994 0.0 102030
03:00−25wnw11982 0.0 102120
06:00−24w3310088 0.0 102125
09:00−24wsw569678 0.0 1021125
12:00−21w57849 0.0 1022241
15:00−17nw478650 0.0 1022310
18:00−17nnw349675 0.0 102227
21:00−16wnw459258 0.0 102356
10 march, wed
wed1000:00−15wnw698490 0.0 1023141
03:00−15nw678975 0.0 1024102
06:00−14nw5785100 0.0 102490
09:00−14wnw5782100 0.0 1024100
12:00−13wnw477888 0.0 1025170
15:00−12w578356 0.0 1025132
18:00−13w56840 0.0 102451
21:00−14wsw56880 0.0 102469
11 march, thu
thu1100:00−15wsw58910 0.0 102491
03:00−16wsw69900 0.0 1023126
06:00−17wsw610850 0.0 1021142
09:00−16wsw712820 0.0 1020250
12:00−12wsw8136811 0.0 1019420
15:00−10sw813719 0.0 1018343
18:00−11ssw813791 0.0 1015205
21:00−12ssw814820 0.0 1013249
12 march, fri
fri1200:00−12ssw915840 0.0 1012332
03:00−13ssw813900 0.0 1009267
06:00−13s8149279 0.0 1007312
09:00−13s9159186 0.0 1005404
12:00−10s9168368 0.0 1003534
15:00−8s10168444 0.0 1001621
18:00−8s9168890 0.0 999407
21:00−9s9158871 0.0 998329